Ellington Field, TX

10:03 PM CST on November 13, 2019 (GMT -0600)
Ellington

Weather History for KEFD - October, 2019

Change the Weather History Date:

Monday, October 21, 2019

  Actual Average Record
Temperature  
Mean Temperature 72 °F -  
Max Temperature 78 °F 78 °F 89 °F (2004)
Min Temperature 66 °F 61 °F 48 °F (1999)
Cooling Degree Days 7    
Growing Degree Days 22 (Base 50)    
Moisture  
Dew Point 64 °F    
Average Humidity 75    
Maximum Humidity 94    
Minimum Humidity 57    
Precipitation  
Precipitation 0.00 in - - ()
Sea Level Pressure  
Sea Level Pressure 29.81 in    
Wind  
Wind Speed 7 mph ()    
Max Wind Speed 14 mph    
Max Gust Speed -    
Visibility 9.0 miles    
Events      
Averages and records for this station are not official NWS values.
T = Trace of Precipitation, MM = Missing Value Source: Averaged Metar Reports

Daily Weather History Graph

Daily Weather History Graph

Search for Another Location

Airport or City:

Astronomy

Oct. 21, 2019 Rise Set
Actual Time 7:26 AM CDT 6:44 PM CDT
Civil Twilight 7:01 AM CDT 7:08 PM CDT
Nautical Twilight 6:33 AM CDT 7:36 PM CDT
Astronomical Twilight 6:06 AM CDT 8:03 PM CDT
Moon 12:12 AM CDT (10/21) 2:29 PM CDT (10/21)
Length of Visible Light 12h 06m
Length of Day
11h 18m
Waning Gibbous, 48% of the Moon is Illuminated
Oct 21
Waning Gibbous
Oct 27
New
Nov 4
First Quarter
Nov 12
Full
Nov 19
Last Quarter

Hourly Weather History & Observations

Time (CDT) Temp. Dew Point Humidity Pressure Visibility Wind Dir Wind Speed Gust Speed Precip Events Conditions
12:50 AM 78.8 °F 75.2 °F 89% 29.73 in 10.0 mi South 11.5 mph - N/A   Mostly Cloudy
1:50 AM 78.8 °F 75.2 °F 89% 29.71 in 10.0 mi South 11.5 mph - N/A   Mostly Cloudy
2:50 AM 78.8 °F 75.2 °F 89% 29.69 in 10.0 mi South 12.7 mph - N/A   Mostly Cloudy
3:50 AM 78.8 °F 75.2 °F 89% 29.68 in 10.0 mi South 8.1 mph - N/A   Mostly Cloudy
4:50 AM 78.8 °F 75.2 °F 89% 29.69 in 10.0 mi South 13.8 mph - N/A   Mostly Cloudy
5:50 AM 77.0 °F 75.2 °F 94% 29.69 in 10.0 mi SSW 8.1 mph - N/A   Mostly Cloudy
6:50 AM 77.0 °F 75.2 °F 94% 29.70 in 6.0 mi SSW 13.8 mph - N/A   Mostly Cloudy
7:50 AM 66.2 °F 64.4 °F 94% 29.75 in 4.0 mi ESE 4.6 mph - N/A   Overcast
8:28 AM 66.2 °F 64.4 °F 94% 29.80 in 2.0 mi Calm Calm - N/A   Overcast
9:50 AM 68.0 °F 64.4 °F 88% 29.82 in 5.0 mi NNW 3.5 mph - N/A   Overcast
10:50 AM 68.0 °F 64.4 °F 88% 29.84 in 10.0 mi NNW 6.9 mph - N/A   Mostly Cloudy
12:50 PM 73.4 °F 62.6 °F 69% 29.86 in 10.0 mi NNE 8.1 mph - N/A   Mostly Cloudy
1:50 PM 73.4 °F 60.8 °F 65% 29.82 in 10.0 mi North 10.4 mph - N/A   Mostly Cloudy
2:50 PM 75.2 °F 60.8 °F 61% 29.81 in 10.0 mi North 6.9 mph - N/A   Scattered Clouds
3:50 PM 75.2 °F 60.8 °F 61% 29.80 in 10.0 mi North 6.9 mph - N/A   Scattered Clouds
4:50 PM 75.2 °F 60.8 °F 61% 29.80 in 10.0 mi NNW 9.2 mph - N/A   Scattered Clouds
5:50 PM 75.2 °F 60.8 °F 61% 29.83 in 10.0 mi NNW 11.5 mph - N/A   Scattered Clouds
6:50 PM 75.2 °F 59.0 °F 57% 29.86 in 10.0 mi North 3.5 mph - N/A   Scattered Clouds
7:50 PM 73.4 °F 57.2 °F 57% 29.90 in 10.0 mi Calm Calm - N/A   Scattered Clouds
8:50 PM 71.6 °F 55.4 °F 57% 29.95 in 10.0 mi North 4.6 mph - N/A   Scattered Clouds
9:50 PM 69.8 °F 55.4 °F 60% 29.96 in 10.0 mi North 3.5 mph - N/A   Scattered Clouds
10:50 PM 66.2 °F 53.6 °F 64% 29.99 in 10.0 mi North 4.6 mph - N/A   Scattered Clouds
11:50 PM 66.2 °F 51.8 °F 60% 30.01 in 10.0 mi NNW 4.6 mph - N/A   Partly Cloudy